Location: Broletto
(44.6000°N, 10.5833°E)
Time: 07:13:14
(UTC+00:00)

Cosmos 1980 - Pass Details

Date: 18 April 2021
Orbit: 838 x 848 km, 71.0° (Epoch: 06 May)

Event Time Altitude Azimuth Distance (km) Brightness Sun altitude
Rises 20:30:09 0° 332° (NNW) 3,418 8.1 -22.7°
Reaches altitude 10° 20:32:36 10° 331° (NNW) 2,479 7.2 -23.0°
Maximum altitude 20:38:16 72° 248° (WSW) 891 3.8 -23.7°
Enters shadow 20:39:45 50° 181° (S) 1,077 3.9 -23.9°
